Weather History for KIWA - March, 2014

Change the Weather History Date:

Sunday, March 23, 2014

  Actual Average Record
Temperature  
Mean Temperature 66 °F -  
Max Temperature 80 °F 77 °F 91 °F (2004)
Min Temperature 51 °F 51 °F 32 °F (2011)
Growing Degree Days 16 (Base 50)    
Moisture  
Dew Point 28 °F    
Average Humidity 29    
Maximum Humidity 47    
Minimum Humidity 10    
Precipitation  
Precipitation 0.00 in - - ()
Sea Level Pressure  
Sea Level Pressure 30.01 in    
Wind  
Wind Speed 6 mph (ESE)    
Max Wind Speed 9 mph    
Max Gust Speed -    
Visibility 12 miles    
Events      
Averages and records for this station are not official NWS values.
T = Trace of Precipitation, MM = Missing Value Source: NWS Daily Summary

Daily Weather History Graph

Daily Weather History Graph

Search for Another Location

Airport or City:

Trip Planner

Search our weather history database for the weather conditions in past years. The results will help you decide how hot, cold, wet, or windy it might be!

Date:

Astronomy

Mar. 23, 2014 Rise Set
Actual Time 6:26 AM MST 6:40 PM MST
Civil Twilight 6:01 AM MST 7:05 PM MST
Nautical Twilight 5:32 AM MST 7:34 PM MST
Astronomical Twilight 5:03 AM MST 8:03 PM MST
Moon 12:46 AM MST (3/23) 11:25 AM MST (3/23)
Length of Visible Light 13h 03m
Length of Day
12h 14m
Waning Gibbous, 53% of the Moon is Illuminated
Mar 23
Waning Gibbous
Mar 23
Last Quarter
Mar 30
New
Apr 7
First Quarter
Apr 15
Full

Hourly Weather History & Observations

Time (MST) Temp. Dew Point Humidity Pressure Visibility Wind Dir Wind Speed Gust Speed Precip Events Conditions
12:15 AM 57.2 °F 28.4 °F 33% 30.01 in 10.0 mi ESE 6.9 mph - N/A   Clear
12:35 AM 57.2 °F 28.4 °F 33% 30.01 in 10.0 mi ESE 6.9 mph - N/A   Clear
12:55 AM 55.4 °F 28.4 °F 36% 30.01 in 10.0 mi ESE 6.9 mph - N/A   Clear
1:15 AM 55.4 °F 28.4 °F 36% 30.02 in 10.0 mi ESE 6.9 mph - N/A   Clear
1:35 AM 51.8 °F 28.4 °F 41% 30.02 in 10.0 mi SE 5.8 mph - N/A   Clear
1:55 AM 51.8 °F 32.0 °F 47% 30.02 in 10.0 mi SE 6.9 mph - N/A   Clear
2:15 AM 53.6 °F 30.2 °F 41% 30.02 in 10.0 mi ESE 6.9 mph - N/A   Clear
2:35 AM 51.8 °F 32.0 °F 47% 30.02 in 10.0 mi East 5.8 mph - N/A   Clear
2:55 AM 51.8 °F 28.4 °F 41% 30.02 in 10.0 mi East 6.9 mph - N/A   Clear
3:15 AM 51.8 °F 28.4 °F 41% 30.02 in 10.0 mi East 8.1 mph - N/A   Clear
3:35 AM 51.8 °F 26.6 °F 38% 30.02 in 10.0 mi East 8.1 mph - N/A   Clear
3:55 AM 51.8 °F 26.6 °F 38% 30.02 in 10.0 mi East 8.1 mph - N/A   Clear
4:15 AM 51.8 °F 28.4 °F 41% 30.02 in 10.0 mi East 9.2 mph - N/A   Clear
4:35 AM 51.8 °F 28.4 °F 41% 30.02 in 10.0 mi East 8.1 mph - N/A   Clear
4:48 AM 53.6 °F 26.6 °F 35% 30.03 in 20.0 mi East 6.9 mph - N/A   Partly Cloudy
4:55 AM 51.8 °F 28.4 °F 41% 30.03 in 10.0 mi East 6.9 mph - N/A   Clear
5:15 AM 51.8 °F 28.4 °F 41% 30.03 in 10.0 mi East 6.9 mph - N/A   Clear
5:35 AM 51.8 °F 28.4 °F 41% 30.04 in 10.0 mi ESE 8.1 mph - N/A   Clear
5:48 AM 53.6 °F 26.6 °F 35% 30.04 in 20.0 mi East 6.9 mph - N/A   Partly Cloudy
6:47 AM 51.8 °F 28.4 °F 41% 30.06 in 20.0 mi East 3.5 mph - N/A   Scattered Clouds
7:52 AM 57.2 °F 32.0 °F 38% 30.08 in 45.0 mi East 5.8 mph - N/A   Partly Cloudy
8:47 AM 64.4 °F 28.4 °F 26% 30.08 in 45.0 mi East 5.8 mph - N/A   Partly Cloudy
9:47 AM 69.8 °F 28.4 °F 21% 30.09 in 30.0 mi SSE 6.9 mph - N/A   Scattered Clouds
10:47 AM 73.4 °F 28.4 °F 19% 30.09 in 45.0 mi Variable 4.6 mph - N/A   Scattered Clouds
11:47 AM 78.8 °F 28.4 °F 16% 30.08 in 45.0 mi Variable 4.6 mph - N/A   Scattered Clouds
12:47 PM 78.8 °F 26.6 °F 15% 30.05 in 30.0 mi West 6.9 mph - N/A   Mostly Cloudy
1:47 PM 80.6 °F 24.8 °F 13% 30.02 in 30.0 mi WNW 3.5 mph - N/A   Mostly Cloudy
2:47 PM 80.6 °F 24.8 °F 13% 29.99 in 45.0 mi West 6.9 mph - N/A   Scattered Clouds
3:47 PM 80.6 °F 24.8 °F 13% 29.97 in 45.0 mi WNW 6.9 mph - N/A   Scattered Clouds
4:47 PM 80.6 °F 21.2 °F 11% 29.97 in 45.0 mi WSW 4.6 mph - N/A   Scattered Clouds
5:54 PM 80.6 °F 19.4 °F 10% 29.97 in 45.0 mi Calm Calm - N/A   Scattered Clouds
6:47 PM 78.8 °F 21.2 °F 12% 29.97 in 20.0 mi Calm Calm - N/A   Scattered Clouds
7:53 PM 73.4 °F 26.6 °F 18% 29.98 in 20.0 mi Calm Calm - N/A   Scattered Clouds
7:55 PM 71.6 °F 26.6 °F 19% 29.98 in 10.0 mi Calm Calm - N/A   Clear
8:15 PM 71.6 °F 24.8 °F 17% 29.98 in 10.0 mi Calm Calm - N/A   Clear
8:35 PM 71.6 °F 24.8 °F 17% 29.99 in 10.0 mi Calm Calm - N/A   Clear
8:49 PM 73.4 °F 24.8 °F 16% 29.99 in 20.0 mi Calm Calm - N/A   Scattered Clouds
8:55 PM 71.6 °F 24.8 °F 17% 29.99 in 10.0 mi Calm Calm - N/A   Clear
9:15 PM 68.0 °F 26.6 °F 21% 29.99 in 10.0 mi Calm Calm - N/A   Clear
9:35 PM 64.4 °F 28.4 °F 26% 30.00 in 10.0 mi Calm Calm - N/A   Clear
9:47 PM 64.4 °F 28.4 °F 26% 30.00 in 20.0 mi Variable 3.5 mph - N/A   Scattered Clouds
9:55 PM 64.4 °F 28.4 °F 26% 30.00 in 10.0 mi ESE 5.8 mph - N/A   Clear
10:15 PM 64.4 °F 28.4 °F 26% 30.00 in 10.0 mi East 4.6 mph - N/A   Clear
10:35 PM 60.8 °F 32.0 °F 34% 30.00 in 10.0 mi Calm Calm - N/A   Clear
10:47 PM 60.8 °F 32.0 °F 34% 30.00 in 20.0 mi ESE 4.6 mph - N/A   Scattered Clouds
10:55 PM 62.6 °F 32.0 °F 32% 30.00 in 10.0 mi ESE 4.6 mph - N/A   Clear
11:15 PM 62.6 °F 30.2 °F 30% 30.00 in 10.0 mi ESE 3.5 mph - N/A   Clear
11:35 PM 62.6 °F 30.2 °F 30% 30.00 in 10.0 mi SE 4.6 mph - N/A   Clear
11:49 PM 62.6 °F 30.2 °F 30% 30.00 in 20.0 mi ESE 4.6 mph - N/A   Scattered Clouds
11:55 PM 62.6 °F 30.2 °F 30% 30.00 in 10.0 mi ESE 3.5 mph - N/A   Clear